This demonstration page uses our WeatherBlox Daily Observations layout. Learn more.

Left ArrowRight Arrow

Hourly Observations for January 17, 2020

Temp ( °F °C ) Dew Point ( °F °C ) Humidity (%) Winds ( mph kmh ) Pressure ( in mb ) Visibility ( mi km ) Precip ( " mm )
12:53 am 00:53 Clear 49 9.4 27 -2.8 43 43 N 6 9 30.45 1031 10 16 0.00 0.00
1:53 am 01:53 Clear 48 8.9 27 -2.8 44 44 N 6 9 30.45 1031 10 16 0.00 0.00
2:53 am 02:53 Clear 47 8.3 26 -3.3 44 44 NNW 3 6 30.46 1031 10 16 0.00 0.00
3:53 am 03:53 Clear 45 7.2 26 -3.3 48 48 N 6 9 30.45 1031 10 16 0.00 0.00
4:53 am 04:53 Clear 44 6.7 26 -3.3 49 49 NNE 5 7 30.46 1031 10 16 0.00 0.00
5:53 am 05:53 Clear 43 6.1 26 -3.3 51 51 Calm 30.48 1032 10 16 0.00 0.00
6:53 am 06:53 Clear 43 6.1 27 -2.8 53 53 Calm 30.49 1033 10 16 0.00 0.00
7:53 am 07:53 Sunny 43 6.1 27 -2.8 53 53 Calm 30.52 1034 10 16 0.00 0.00
8:53 am 08:53 Sunny 44 6.7 29 -1.7 55 55 Calm 30.53 1034 10 16 0.00 0.00
9:53 am 09:53 Cloudy 47 8.3 30 -1.1 52 52 NNE 6 9 30.54 1034 10 16 0.00 0.00
10:53 am 10:53 Cloudy 51 10.6 28 -2.2 41 41 E 8 13 30.56 1035 10 16 0.00 0.00
11:53 am 11:53 Cloudy 52 11.1 20 -6.7 28 28 E 14 22 30.54 1034 10 16 0.00 0.00
12:53 pm 12:53 Mostly Cloudy 53 11.7 21 -6.1 28 28 E 10 17 30.51 1033 10 16 0.00 0.00
1:53 pm 13:53 Cloudy 55 12.8 22 -5.6 28 28 E 12 19 30.49 1033 10 16 0.00 0.00
2:53 pm 14:53 Sunny 55 12.8 23 -5 29 29 E 9 15 30.47 1032 10 16 0.00 0.00
3:53 pm 15:53 Sunny 54 12.2 23 -5 30 30 E 10 17 30.48 1032 10 16 0.00 0.00
4:53 pm 16:53 Sunny 53 11.7 23 -5 31 31 E 12 19 30.48 1032 10 16 0.00 0.00
5:53 pm 17:53 Sunny 51 10.6 24 -4.4 35 35 ESE 13 20 30.49 1033 10 16 0.00 0.00
6:53 pm 18:53 Mostly Cloudy 50 10 21 -6.1 32 32 E 7 11 30.52 1033 10 16 0.00 0.00
7:53 pm 19:53 Clear 48 8.9 23 -5 37 37 ENE 8 13 30.53 1034 10 16 0.00 0.00
8:53 pm 20:53 Mostly Clear 48 8.9 18 -7.8 30 30 E 10 17 30.53 1034 10 16 0.00 0.00
9:53 pm 21:53 Mostly Cloudy 47 8.3 19 -7.2 33 33 E 7 11 30.52 1034 10 16 0.00 0.00
10:53 pm 22:53 Mostly Clear 46 7.8 20 -6.7 35 35 E 7 11 30.52 1033 10 16 0.00 0.00
11:53 pm 23:53 Partly Cloudy 45 7.2 21 -6.1 39 39 E 9 15 30.51 1033 10 16 0.00 0.00

Powered by AerisWeather